Location: NJAA Observatory
(40.6819°N, 74.8979°W)
Time: 22:55:07
(UTC-04:00)

Transit 2A Rocket - Visible Passes

Search period start: 15 September 2014 00:00
Search period end: 25 September 2014 00:00
Orbit: 593 x 915 km, 66.7° (Epoch: 15 September)

Date Brightness Start Highest point End Pass type
(mag) Time Alt. Az. Time Alt. Az. Time Alt. Az.
15 Sep 5.8 04:24:53 31° NNW 04:24:53 31° NNW 04:27:46 10° NNE visible
16 Sep 6.6 03:44:29 24° NNE 03:44:29 24° NNE 03:46:17 10° NNE visible
17 Sep 7.5 03:04:04 13° NE 03:04:04 13° NE 03:04:35 10° NE visible
17 Sep 6.7 04:44:02 15° NNW 04:44:02 15° NNW 04:45:56 10° N visible
18 Sep 6.8 04:03:34 17° N 04:03:34 17° N 04:04:59 10° N visible
19 Sep 7.4 03:23:05 13° NNE 03:23:05 13° NNE 03:23:40 10° NNE visible
21 Sep 7.5 03:41:59 10° N 03:41:59 10° N 03:42:00 10° N visible
